Wind_Speed
54 56 52 46 45 47 38 35 37 37 41 36 36 37 32 44 46 43 40 41 34 33 30 26 25 25 24 20 12 10 8 10 12 16 17 15 15 12 14 12 13 16 18
51 54 50 45 44 45 37 36 37 38 40 39 41 40 33 45 47 44 47 39 32 27 30 20 22 20 20 18 17 9 10 12 13 17 18 14 14 16 17 13 13 16 17
56 53 50 43 45 44 41 37 39 39 43 40 41 39 35 45 55 47 48 45 32 32 35 24 22 18 20 20 20 16 16 15 14 17 16 15 18 19 15 14 15 17 18
59 51 52 44 44 43 37 37 40 38 39 40 38 35 32 45 52 48 47 44 42 39 37 28 25 27 27 24 25 20 19 19 17 18 18 16 17 17 17 17 20 20 18
58 49 47 41 43 43 37 37 42 37 38 37 34 30 37 49 52 51 46 50 45 46 35 35 31 30 29 25 21 21 24 25 24 21 21 20 18 19 21 22 24 23 17
54 48 48 41 39 43 36 40 39 39 37 35 33 26 47 52 51 50 51 52 52 48 42 37 39 28 26 26 24 27 26 26 28 27 24 23 20 21 25 25 23 24 22
50 44 47 41 40 43 44 39 39 40 38 37 33 30 58 57 55 56 55 56 52 48 48 46 42 34 29 25 22 20 25 33 31 34 29 28 23 23 19 22 24 24 30
41 39 44 38 40 44 41 38 35 33 33 39 34 35 61 61 57 59 58 55 56 54 48 44 43 42 34 30 27 28 32 32 35 33 33 30 29 28 26 28 27 31 34
35 40 35 37 39 41 40 43 42 36 37 38 35 41 65 66 56 63 67 65 64 52 55 49 51 40 40 41 35 37 33 35 35 35 31 28 32 29 31 28 31 31 35
36 35 32 32 40 43 42 38 35 37 37 37 38 42 70 72 57 59 65 73 68 60 56 54 54 53 50 49 45 42 37 39 35 43 34 35 35 33 32 31 33 36 38
42 38 34 46 45 53 50 46 39 38 38 39 39 33 73 76 68 59 64 66 67 64 61 63 59 61 57 52 45 45 44 45 45 45 46 43 41 40 43 43 43 38 40
48 48 54 55 55 57 44 42 41 41 38 41 41 39 71 76 67 63 60 64 63 60 63 61 58 58 54 55 48 50 50 50 46 48 46 47 46 43 44 46 44 43 44
55 53 52 63 61 57 44 46 44 45 44 48 43 44 59 65 62 64 62 51 54 60 60 68 65 59 57 55 50 51 52 51 49 51 50 48 43 47 47 48 47 46 45
55 45 48 51 51 49 53 54 50 49 48 45 41 47 60 65 54 64 65 62 52 53 66 67 62 58 55 55 54 54 49 49 52 56 57 55 49 50 48 49 47 45 44
33 35 32 40 44 47 51 54 51 52 47 41 46 49 55 55 55 54 56 60 55 49 53 60 64 58 61 61 60 55 57 57 55 53 50 51 46 49 46 47 46 45 47
34 33 28 33 37 40 47 50 50 45 41 40 49 51 50 56 56 54 54 56 55 57 50 48 52 59 66 64 63 64 60 59 58 58 54 50 48 49 51 50 50 50 55
36 42 34 39 41 49 54 50 41 35 37 42 44 49 54 54 55 59 56 55 51 51 53 54 58 59 60 62 62 61 63 59 58 59 57 56 56 56 56 54 52 57 52
43 44 35 39 43 37 36 31 30 32 36 39 41 38 40 43 51 58 62 59 54 54 59 61 62 63 63 62 62 60 60 61 63 65 66 58 58 58 58 56 59 57 55
36 21 37 31 25 17 21 27 27 28 31 29 31 34 37 40 48 50 60 66 63 58 59 63 65 67 69 67 65 64 64 63 64 63 61 58 58 62 61 61 60 60 58
31 22 18 12 17 19 20 21 25 27 31 31 32 34 37 38 43 46 50 54 56 62 64 62 66 68 67 65 64 68 67 67 66 61 60 61 63 65 64 66 63 62 64
29 22 24 14 15 22 22 26 26 28 31 31 31 32 31 31 35 38 44 50 52 60 60 60 66 68 67 66 66 67 64 61 60 61 62 63 66 68 69 63 63 62 59
36 35 35 29 25 22 27 30 33 30 31 30 31 29 24 26 24 25 32 36 43 53 58 58 56 65 67 70 64 63 63 66 69 64 64 68 65 64 67 67 65 62 64
42 41 34 35 29 30 29 29 31 33 33 33 33 33 33 31 30 29 28 40 40 43 54 53 51 50 50 53 55 53 53 56 57 61 61 60 61 63 64 63 64 67 69
52 44 41 44 46 45 40 31 31 34 35 35 37 36 40 38 39 41 43 42 43 45 52 52 53 52 55 55 56 55 56 57 62 65 64 64 65 64 64 67 72 76 77
50 49 52 53 53 52 53 46 35 37 39 37 40 41 42 44 46 42 49 48 49 54 56 55 57 56 53 55 56 58 61 63 64 64 64 64 66 70 72 74 76 75 75
56 58 51 49 55 58 53 49 40 36 40 42 41 43 49 49 50 55 57 57 60 60 61 62 63 63 64 66 69 67 64 66 67 66 69 71 75 78 79 78 77 78 78
Wind_Direction
271 270 272 276 272 265 260 255 249 249 252 257 266 259 259 235 219 212 215 218 234 229 239 248 263 255 224 236 259 304 288 319 323 314 321 309 313 325 329 336 337 331 326
272 269 269 271 268 263 253 248 246 250 254 258 264 270 260 224 209 209 219 211 221 226 223 255 234 219 218 239 244 271 306 292 308 316 309 311 297 311 312 314 324 322 313
265 265 265 265 263 261 250 250 250 249 255 262 265 275 264 216 209 211 219 217 221 224 224 232 224 220 234 237 244 261 287 300 297 305 306 294 286 296 304 307 307 310 309
259 259 259 259 258 256 252 249 250 250 257 262 271 278 230 209 197 207 214 219 218 231 230 228 228 251 244 237 241 256 277 286 288 300 295 305 291 287 291 305 296 293 299
253 250 252 250 253 250 250 252 250 255 265 268 274 270 213 199 201 213 218 220 225 227 237 239 244 232 232 238 246 258 270 284 278 295 302 301 304 290 289 296 298 291 293
250 243 246 245 250 247 247 248 251 258 270 272 276 246 195 197 201 209 216 222 224 227 232 233 226 219 222 232 240 250 260 277 274 281 293 287 288 287 280 288 299 287 279
242 237 243 241 252 249 245 254 252 261 267 272 275 231 198 198 200 208 212 224 225 229 228 230 217 222 220 245 240 269 270 267 272 275 284 283 290 288 286 290 286 280 277
231 232 238 240 249 245 248 250 256 263 268 270 271 224 200 202 202 211 213 218 226 229 220 223 227 225 233 239 247 268 281 266 269 273 279 287 280 284 280 283 290 277 281
224 230 239 239 238 247 249 251 261 264 267 269 272 217 201 200 205 215 217 215 222 222 225 224 229 229 239 242 251 275 270 266 273 274 272 271 277 289 290 284 287 285 284
209 220 233 242 257 249 249 251 255 264 262 268 271 222 203 202 206 215 223 224 223 226 216 224 227 235 242 256 258 269 265 265 267 270 263 270 275 281 284 288 284 282 295
197 206 212 238 249 254 253 252 257 261 265 269 272 239 204 207 207 216 222 227 229 232 231 229 233 238 246 251 259 262 264 257 262 265 267 270 271 276 282 287 290 293 292
197 203 205 224 238 248 249 256 262 260 271 277 273 242 208 207 214 217 222 230 234 233 232 237 234 240 241 252 259 257 258 259 263 265 266 271 274 277 280 283 287 291 291
194 203 220 220 230 244 250 257 258 265 274 276 266 232 214 211 219 222 219 225 237 238 237 238 240 241 248 250 250 251 257 259 259 263 265 269 272 275 279 280 281 286 287
201 214 225 227 239 256 255 257 261 268 271 271 242 222 213 211 217 225 220 223 228 235 235 238 240 242 243 244 247 249 254 257 258 263 266 274 276 278 277 278 282 282 287
210 221 230 239 251 252 252 254 261 264 268 254 219 214 210 215 218 222 226 230 235 236 235 240 242 239 240 242 245 249 247 248 255 260 265 272 271 277 277 279 280 283 289
202 213 236 250 257 263 256 256 258 259 254 222 215 214 217 219 221 223 226 228 235 240 240 235 239 242 242 241 244 247 246 247 253 259 266 271 275 275 279 282 280 284 287
202 227 254 255 263 260 254 252 251 241 219 215 217 219 221 225 227 223 227 226 230 227 224 227 229 236 241 243 242 245 249 253 255 260 269 273 277 275 277 277 277 285 287
201 226 247 255 271 254 242 233 212 212 216 218 220 224 230 232 229 228 229 227 229 227 220 227 232 236 243 244 249 251 249 252 257 263 270 272 273 272 276 275 280 282 283
206 216 241 255 265 231 206 203 205 216 226 228 234 238 238 238 234 233 229 229 231 232 232 230 233 240 245 246 251 256 258 260 264 266 267 269 270 272 272 277 280 281 277
212 226 242 254 248 214 206 214 224 234 241 242 245 242 243 241 240 234 230 228 232 234 236 237 238 242 246 250 252 255 259 260 262 264 264 265 264 269 274 280 280 274 277
208 226 237 232 238 227 230 234 236 245 243 244 243 241 235 229 235 234 232 226 228 232 237 237 239 245 247 251 252 255 257 260 261 262 263 263 269 273 276 277 277 281 282
226 229 240 239 246 242 241 243 242 249 247 244 240 226 219 230 224 225 225 215 230 231 230 235 240 243 247 249 255 256 257 258 259 265 264 265 269 273 275 277 281 282 282
237 244 244 249 248 261 242 246 249 248 257 247 245 222 221 223 246 239 238 221 223 230 234 240 246 248 249 250 249 250 254 257 262 268 271 271 272 274 278 279 279 280 282
237 236 250 256 262 266 263 251 256 250 248 248 249 244 226 231 226 245 238 233 223 233 243 246 248 247 247 250 253 259 262 267 266 267 269 270 274 276 277 278 281 281 283
232 243 240 254 260 261 265 262 256 247 247 246 246 250 243 232 228 229 247 246 247 236 240 249 253 255 261 263 262 261 263 265 264 267 269 270 273 276 278 278 279 280 280
239 236 243 247 251 254 260 258 250 248 246 247 246 243 244 242 238 231 233 236 243 245 249 252 256 255 258 258 262 262 261 264 266 268 272 273 276 278 279 279 278 278 279
Height
10671 10676 10681 10683 10683 10684 10687 10690 10691 10692 10693 10694 10694 10697 10701 10705 10709 10714 10717 10724 10729 10734 10738 10739 10740 10742 10744 10744 10745 10745 10744 10742 10742 10741 10740 10738 10736 10734 10734 10734 10732 10731 10731
10656 10662 10669 10672 10673 10675 10679 10681 10681 10683 10683 10684 10685 10687 10689 10694 10700 10705 10709 10716 10721 10726 10730 10733 10733 10734 10737 10739 10741 10740 10740 10739 10738 10737 10737 10735 10734 10732 10732 10731 10730 10729 10728
10641 10648 10657 10662 10663 10666 10670 10672 10672 10673 10675 10676 10676 10676 10676 10683 10690 10697 10701 10707 10713 10718 10723 10725 10728 10730 10732 10733 10735 10735 10735 10734 10733 10733 10733 10732 10731 10730 10729 10727 10726 10725 10724
10628 10633 10643 10650 10652 10656 10661 10662 10663 10664 10666 10667 10667 10666 10666 10674 10681 10687 10693 10699 10706 10710 10714 10718 10721 10724 10727 10727 10728 10729 10729 10729 10729 10729 10728 10727 10726 10726 10724 10723 10722 10721 10719
10612 10618 10629 10636 10641 10645 10650 10651 10653 10655 10656 10657 10658 10657 10661 10667 10675 10681 10686 10691 10697 10701 10706 10711 10714 10717 10719 10721 10722 10723 10723 10722 10723 10724 10723 10722 10721 10720 10720 10719 10717 10716 10715
10599 10607 10617 10624 10631 10636 10639 10640 10643 10645 10647 10647 10649 10649 10655 10660 10667 10672 10677 10682 10688 10694 10698 10704 10707 10709 10712 10713 10717 10717 10717 10717 10717 10718 10718 10717 10717 10716 10715 10714 10713 10711 10709
10587 10596 10606 10614 10621 10625 10627 10633 10633 10635 10638 10638 10640 10641 10648 10653 10659 10663 10669 10672 10679 10684 10690 10695 10698 10700 10703 10706 10709 10710 10712 10712 10711 10711 10711 10711 10711 10710 10709 10709 10708 10707 10704
10576 10585 10594 10603 10610 10614 10619 10623 10624 10626 10627 10629 10631 10634 10641 10645 10650 10654 10660 10665 10667 10673 10679 10685 10689 10692 10694 10698 10700 10702 10705 10705 10706 10705 10705 10705 10704 10704 10702 10702 10700 10699 10697
10563 10574 10585 10593 10599 10604 10609 10613 10614 10616 10618 10619 10622 10627 10631 10635 10639 10644 10647 10650 10652 10662 10669 10675 10681 10684 10686 10689 10693 10695 10697 10697 10698 10699 10698 10697 10696 10696 10695 10694 10694 10692 10690
10553 10566 10575 10584 10591 10593 10599 10602 10603 10606 10608 10608 10611 10615 10620 10623 10630 10635 10639 10642 10647 10653 10660 10666 10670 10675 10677 10680 10685 10686 10688 10689 10689 10691 10690 10689 10689 10689 10688 10687 10686 10684 10681
10543 10555 10564 10573 10581 10580 10587 10590 10592 10595 10597 10597 10599 10603 10608 10613 10618 10624 10627 10632 10639 10646 10651 10656 10660 10666 10669 10672 10676 10677 10678 10680 10680 10681 10681 10681 10681 10680 10680 10678 10677 10674 10672
10531 10543 10551 10560 10565 10569 10575 10578 10582 10583 10584 10584 10587 10590 10595 10601 10605 10614 10619 10625 10632 10636 10641 10646 10649 10654 10659 10663 10665 10666 10668 10670 10671 10672 10671 10671 10671 10671 10670 10669 10667 10665 10663
10519 10532 10539 10545 10552 10556 10564 10567 10570 10570 10570 10571 10574 10576 10583 10590 10597 10603 10611 10615 10621 10625 10631 10632 10637 10643 10649 10653 10655 10656 10657 10660 10661 10661 10662 10662 10661 10661 10660 10658 10656 10654 10653
10518 10527 10534 10540 10546 10551 10554 10555 10557 10556 10557 10558 10560 10565 10572 10579 10587 10592 10599 10605 10610 10612 10617 10622 10625 10633 10637 10641 10644 10646 10650 10649 10649 10650 10651 10651 10651 10650 10648 10646 10646 10643 10642
10517 10526 10533 10537 10537 10538 10539 10541 10540 10541 10543 10545 10550 10556 10562 10568 10576 10583 10589 10593 10598 10603 10607 10610 10615 10620 10624 10628 10632 10635 10637 10636 10638 10639 10640 10640 10639 10638 10636 10636 10634 10633 10631
10508 10513 10518 10522 10523 10524 10524 10525 10526 10528 10531 10535 10541 10547 10553 10559 10564 10571 10577 10582 10587 10592 10596 10599 10602 10606 10610 10616 10621 10623 10623 10625 10629 10628 10629 10628 10627 10626 10625 10624 10623 10621 10620
10496 10508 10511 10510 10510 10509 10509 10511 10513 10517 10522 10528 10533 10538 10544 10549 10553 10559 10564 10571 10576 10580 10584 10590 10592 10594 10599 10603 10608 10610 10612 10616 10616 10616 10616 10615 10615 10614 10612 10612 10611 10610 10607
10487 10497 10499 10500 10498 10493 10493 10497 10504 10511 10516 10521 10526 10531 10535 10539 10543 10547 10551 10558 10563 10568 10572 10577 10581 10585 10587 10591 10594 10599 10603 10603 10604 10604 10604 10603 10602 10601 10600 10599 10598 10596 10594
10484 10487 10492 10492 10488 10485 10488 10494 10499 10505 10510 10514 10519 10521 10525 10528 10531 10535 10539 10545 10551 10556 10562 10566 10570 10572 10574 10579 10583 10586 10588 10590 10590 10590 10590 10590 10589 10587 10586 10585 10584 10582 10580
10474 10478 10481 10481 10482 10483 10486 10491 10495 10499 10504 10507 10510 10512 10514 10515 10517 10520 10526 10533 10539 10544 10549 10555 10557 10559 10562 10568 10571 10572 10574 10576 10576 10576 10575 10575 10574 10573 10573 10572 10570 10567 10565
10464 10470 10474 10475 10479 10481 10483 10486 10489 10492 10496 10499 10502 10504 10505 10506 10507 10510 10515 10522 10528 10531 10538 10542 10543 10547 10552 10556 10556 10557 10560 10561 10561 10561 10560 10559 10558 10558 10558 10558 10554 10552 10550
10459 10462 10465 10469 10472 10475 10478 10480 10484 10486 10487 10490 10493 10495 10497 10499 10501 10504 10507 10512 10516 10521 10524 10528 10532 10533 10538 10541 10543 10544 10544 10545 10546 10545 10544 10545 10543 10543 10543 10541 10539 10536 10535
10451 10456 10458 10459 10463 10468 10471 10473 10475 10478 10479 10481 10484 10487 10488 10493 10496 10499 10502 10505 10509 10511 10513 10517 10520 10523 10525 10526 10528 10530 10530 10530 10531 10530 10530 10530 10528 10527 10526 10525 10522 10520 10518
10441 10446 10448 10449 10451 10456 10462 10462 10464 10467 10470 10472 10475 10478 10480 10484 10488 10491 10494 10496 10499 10502 10503 10506 10507 10509 10511 10512 10513 10515 10516 10516 10516 10515 10514 10514 10514 10512 10510 10508 10505 10502 10500
10430 10434 10437 10440 10441 10444 10447 10452 10453 10455 10459 10462 10465 10468 10471 10474 10477 10481 10483 10485 10487 10489 10491 10492 10493 10495 10496 10498 10499 10500 10501 10501 10501 10499 10499 10497 10496 10494 10492 10489 10486 10484 10481
10416 10423 10426 10429 10427 10429 10434 10438 10442 10444 10448 10451 10455 10458 10461 10464 10467 10469 10471 10473 10475 10476 10478 10478 10479 10480 10482 10483 10483 10483 10484 10483 10483 10481 10479 10477 10476 10475 10473 10470 10468 10466 10462